Location: Remedello Sotto
(45.2500°N, 10.3667°E)
Time: 19:38:10
(UTC+00:00)

Envisat - Visible Passes

Search period start: 29 May 2023 00:00
Search period end: 08 June 2023 00:00
Orbit: 763 x 765 km, 98.2° (Epoch: 29 May)

Date Brightness Start Highest point End Pass type
(mag) Time Alt. Az. Time Alt. Az. Time Alt. Az.
29 May 5.1 02:17:57 10° NE 02:22:05 25° E 02:26:11 10° SSE visible
30 May 5.8 01:43:03 10° ENE 01:44:30 11° E 01:45:57 10° ESE visible
31 May 4.3 02:42:11 10° NNE 02:46:59 41° E 02:51:45 10° SSE visible
01 Jun 5.4 02:05:56 10° NE 02:09:32 19° E 02:13:08 10° SE visible
03 Jun 4.7 02:29:57 10° NNE 02:34:29 32° E 02:39:00 10° SSE visible
04 Jun 5.5 01:54:06 10° NE 01:56:59 15° E 01:59:49 10° ESE visible
05 Jun 3.8 02:54:22 10° NNE 02:59:20 53° E 03:04:17 10° S visible
06 Jun 5.0 02:17:48 10° NE 02:21:58 25° E 02:26:06 10° SSE visible
07 Jun 5.7 01:42:48 10° ENE 01:44:23 11° E 01:45:57 10° ESE visible
